Showing default

BUZZZER-1, 62609

Orbit data source: Space-Track

BUZZZER-1, 62609 is a payload satellite owned by Unseen Labs (FR) in SSO that was launched on Tue, 14 Jan 2025 UTC via an FALCON 9 launch vehicle from the Air Force Western Test Range (AFWTR). Payload-class satellites include a variety of spacecraft equipped with specific instruments for various scientific and technological missions. These include communications satellites like Starlink; space stations such as the ISS; scientific satellites like the Hubble; Earth observation satellites from companies like Planet Labs, Umbra, and HawkEye 360; GPS; miniature CubeSats for education and research; and military/defense satellites.

Loading next visibility...
Identifier
62609, 2025-009A
Orbit
SSO
Country
Flag of FRFR
Related business
Manufacturer
Unseen Labs
Mission
Operational Commercial Sigint
Bus & Motor
CUBESAT 6U, Unknown motor
Mass
~10 kg wet, ~10 kg dry
Launch date (UTC)
2025-01-14 (8 months ago)
Launch vehicle
FALCON 9
Launch site
Air Force Western Test Range (AFWTR)
Object type
Payload
Rocket body
Debris
Shape & HBR
Box + 2 Pan, 0.1 m
Radar Cross Section
0.080 m², Medium (>0.1 m² and < 1m²)

Expand to show TLE details & history
Last TLE update: 1 day ago

TLE from 1 day ago
0 BUZZZER-1
1 62609U 25009A   25260.71357987  .00003215  00000-0  15672-3 0  9996
2 62609  97.4188 338.8500 0007459 198.3504 161.7463 15.19015428 37299
Epoch: 2025-09-17T17:07Z
TLE epoch observation values (Epoch: 2025-09-17T17:07:33.3Z)
Latitude
Longitude
85.07567°
Altitude
516.783 km
Speed
7.602 km/s
True Right ascension
22h 35m 23s
True Declination
0° 00' 00"
Sunlit
Object was in full shadow at epoch
Visualization orbit readout
Latitude
Unknown
Longitude
Unknown
Altitude
Unknown
Speed
Unknown
Apparent Right ascension
Unknown
Apparent Declination
Unknown
Sunlit
N/A
Visualization observer readout
Local Sidereal Time
13:03:02
Azimuth
Unknown
Elevation
Unknown
Doppler factor
Unknown
Orbital elements
Apogee altitude
510.917 km
Perigee altitude
500.648 km
Semi-major axis
6,883.92 km
Eccentricity
0.00075
Inclination
97.4188°
RAAN
338.85°
Arg. of periapsis
198.3504°
True anomaly
161.77305°
Mean anomaly
161.7463°
Eccentric anomaly
161.75968°
Mean motion
3.80005 °/min
Orbital period
94.74 mins
BSTAR
0.00015672
Loading maneuver chart data...
Computing Atmospheric mass density...
Loading historical data...
Loading historical data...
Loading historical data...
Loading historical data...
Loading historical data...
Loading historical data...
Loading historical data...

Documentation

Showing up to 5 results
|